FENGYUN 1C DEB

Satellite information

Favourite Embed

Satellite Type and Status

DEBRISIN ORBIT

Key statistics

Satellite FENGYUN 1C DEB at a glance.

Uptime

9714

Days in orbit

Revolutions

≈ 13.4

Per day

Orbit

SSO

Sun Synchronous Orbit

Inclination

97.8

Latest

Satellite identification and parameters

Extended collection of information and parameters for FENGYUN 1C DEB.

Object identification

Identified? True

Debris? True

Object name: FENGYUN 1C DEB

International designator: 1999-025CMG

Object number (NORAD): 31931

Object ID (CCSDS): 31931

Country: PEOPLES REPUBLIC OF CHINA (PRC)

Current information (Y/N): Y

RCS size: SMALL

Orbital parameters

Period: 107.253 minutes

Inclination: 97.8134 deg

SMA: 7477.676 km

Apoapsis: 1416.059 km

Periapsis: 783.023 km

RAAN: 296.3349 deg

Eccentricy: 0.04232838

Argument of periapsis: 272.5371 deg

Mean anomaly: 82.7388 deg

Mean motion: 13.42619022 rev/day

Mean motion (dot): 0.00001586 rev/day2

B* drag term: 0.0016768042 1/REarth

Two-line elements (TLE)

Creation date: Dec. 11, 2025, 7:14 p.m.

Reference frame: TEME

Reference center: EARTH

Epoch: Dec. 11, 2025, 2:58 p.m. UTC

TLE line 0: 0 FENGYUN 1C DEB

TLE line 1: 1 31931U 99025CMG 25345.62377587 .00001586 00000-0 16768-2 0 9996

TLE line 2: 2 31931 97.8134 296.3349 0423284 272.5371 82.7388 13.42619022652073

Live tracking on map

Real-time ground track for satellite FENGYUN 1C DEB.

In-orbit conjunctions

A list of the most updated potential collisions computed for object FENGYUN 1C DEB.

Target Orbit TCA Probability of collision Miss distance Type
DTUSAT SSO 2025-02-24 06:32:12 0.0001308501 840.0 (m) PAYLOAD
SL-16 R/B LEO 2025-01-04 18:12:49 0.0001087576 718.0 (m) ROCKET BODY

Associated space launch

Chinese polar orbiting meteorological satellite

FENGYUN 1C DEB was lifted into orbit during the mission ‘Long March 4B | Feng Yun 1C’, on board a Long March 4B space rocket.

The launch took place on May 10, 1999, 1:33 a.m. from Launch Complex 7.

For more information about the launch, click the button.

Launch to space Long March 4B | Feng Yun 1C
Long March 4B | Feng Yun 1C

Agency: N/A

Status: Launch Successful

Launch date: May 10, 1999, 1:33 a.m. UTC

Rocket: Long March 4B

Launch pad: Launch Complex 7

Location: Taiyuan Satellite Launch Center, People's Republic of China

...

Latest news about this satellite

There are no fresh news available about this satellite. Check back as we update our databases every day.


Newsletter sign-up

Weekly statistics, charts and insights to help you stay on top of the space industry.